Tracking 27126 objects as of 30-Mar-2023
HD Live streaming from Space Station
objects crossing your sky now

STARLINK-3312

Track STARLINK-3312 now!
10-day predictions
STARLINK-3312 is classified as:


NORAD ID: 50850
Int'l Code: 2022-001AZ
Perigee: 546.0 km
Apogee: 547.7 km
Inclination: 53.2 °
Period: 95.4 minutes
Semi major axis: 6917 km
RCS: Unknown
Launch date: January 6, 2022
Source: United States (US)
Launch site: AIR FORCE EASTERN TEST RANGE (AFETR)
Your satellite tracking list
Your tracking list is empty




NASA's NSSDC Master Catalog

Two Line Element Set (TLE):
1 50850U 22001AZ  23088.93360187  .00004367  00000-0  29223-3 0  9992
2 50850  53.2128 288.3778 0001185  95.7884 264.3243 15.08851452 69705
Source of the keplerian elements: AFSPC